| time (UTC) | temp F | wind direction | speed MPH | gust MPH | rain 1hr in | rain 24hr in | rain mn in | humidity % | barometer mb |
| 20260504032457 | 77 | 95 | 12.0 | 16.0 | 0.00 | 0.00 | 0.00 | 79 | 1021.3 |
| 20260504031954 | 77 | 81 | 8.0 | 16.0 | 0.00 | 0.00 | 0.00 | 80 | 1021.5 |
| 20260504031451 | 77 | 79 | 12.0 | 18.0 | 0.00 | 0.00 | 0.00 | 80 | 1021.3 |
| 20260504030947 | 77 | 71 | 9.0 | 13.0 | 0.00 | 0.00 | 0.00 | 80 | 1021.6 |
| 20260504030445 | 77 | 89 | 11.0 | 13.0 | 0.00 | 0.00 | 0.00 | 80 | 1021.5 |
| 20260504025940 | 77 | 74 | 10.0 | 14.0 | 0.00 | 0.00 | 0.00 | 81 | 1021.5 |
| 20260504025437 | 77 | 84 | 8.0 | 13.0 | 0.00 | 0.00 | 0.00 | 81 | 1021.5 |
| 20260504024935 | 77 | 60 | 7.0 | 16.0 | 0.00 | 0.00 | 0.00 | 81 | 1021.4 |
| 20260504024431 | 77 | 51 | 14.0 | 17.0 | 0.00 | 0.00 | 0.00 | 81 | 1021.4 |
| 20260504023928 | 77 | 85 | 7.0 | 14.0 | 0.00 | 0.00 | 0.00 | 81 | 1021.3 |
| 20260504023425 | 77 | 50 | 9.0 | 15.0 | 0.00 | 0.00 | 0.00 | 81 | 1021.1 |
| 20260504022920 | 77 | 81 | 6.0 | 14.0 | 0.00 | 0.00 | 0.00 | 81 | 1021.3 |
| 20260504022417 | 77 | 65 | 10.0 | 14.0 | 0.00 | 0.00 | 0.00 | 81 | 1021.3 |
| 20260504021914 | 77 | 55 | 6.0 | 14.0 | 0.00 | 0.00 | 0.00 | 81 | 1021.0 |
| 20260504021411 | 77 | 70 | 8.0 | 10.0 | 0.00 | 0.00 | 0.00 | 81 | 1021.0 |
| 20260504020908 | 77 | 126 | 6.0 | 11.0 | 0.00 | 0.00 | 0.00 | 80 | 1020.9 |
| 20260504020405 | 77 | 41 | 8.0 | 11.0 | 0.00 | 0.00 | 0.00 | 80 | 1020.9 |
| 20260504015901 | 77 | 65 | 8.0 | 13.0 | 0.00 | 0.00 | 0.00 | 80 | 1020.8 |
| 20260504015357 | 77 | 75 | 6.0 | 13.0 | 0.00 | 0.00 | 0.00 | 80 | 1020.6 |
| 20260504014853 | 77 | 85 | 8.0 | 13.0 | 0.00 | 0.00 | 0.00 | 80 | 1020.8 |
| 20260504014349 | 77 | 244 | 4.0 | 11.0 | 0.00 | 0.00 | 0.00 | 80 | 1020.7 |
| 20260504013847 | 77 | 69 | 9.0 | 14.0 | 0.00 | 0.00 | 0.00 | 80 | 1020.7 |
| 20260504013345 | 77 | 28 | 9.0 | 11.0 | 0.00 | 0.00 | 0.00 | 80 | 1020.6 |
| 20260504012841 | 77 | 51 | 7.0 | 11.0 | 0.00 | 0.00 | 0.00 | 80 | 1020.6 |
| 20260504012339 | 77 | 67 | 12.0 | 14.0 | 0.00 | 0.00 | 0.00 | 80 | 1020.6 |
| 20260504011836 | 77 | 59 | 9.0 | 11.0 | 0.00 | 0.00 | 0.00 | 80 | 1020.6 |
| 20260504011333 | 77 | 81 | 10.0 | 15.0 | 0.00 | 0.00 | 0.00 | 80 | 1020.5 |
| 20260504010829 | 77 | 70 | 9.0 | 14.0 | 0.00 | 0.00 | 0.00 | 80 | 1020.5 |
| 20260504010324 | 77 | 87 | 12.0 | 15.0 | 0.00 | 0.00 | 0.00 | 81 | 1020.7 |
| 20260504005821 | 77 | 102 | 14.0 | 16.0 | 0.00 | 0.00 | 0.00 | 81 | 1020.8 |
| 20260504005318 | 77 | 87 | 11.0 | 15.0 | 0.00 | 0.00 | 0.00 | 82 | 1020.8 |
| 20260504004816 | 77 | 88 | 9.0 | 13.0 | 0.00 | 0.00 | 0.00 | 82 | 1020.7 |
| 20260504004313 | 77 | 82 | 8.0 | 13.0 | 0.00 | 0.00 | 0.00 | 82 | 1020.5 |
| 20260504003809 | 77 | 77 | 7.0 | 11.0 | 0.00 | 0.00 | 0.00 | 82 | 1020.6 |
| 20260504003307 | 77 | 128 | 6.0 | 10.0 | 0.00 | 0.00 | 0.00 | 82 | 1020.6 |
| 20260504002803 | 77 | 50 | 8.0 | 17.0 | 0.00 | 0.00 | 0.00 | 82 | 1020.5 |
| 20260504002300 | 77 | 85 | 9.0 | 15.0 | 0.00 | 0.00 | 0.00 | 82 | 1020.4 |
| 20260504001758 | 77 | 65 | 4.0 | 10.0 | 0.00 | 0.00 | 0.00 | 82 | 1020.5 |
| 20260504001254 | 77 | 70 | 8.0 | 9.0 | 0.00 | 0.00 | 0.00 | 82 | 1020.3 |
| 20260504000751 | 78 | 82 | 6.0 | 13.0 | 0.00 | 0.00 | 0.00 | 81 | 1020.5 |
| 20260504000248 | 78 | 46 | 4.0 | 9.0 | 0.00 | 0.00 | 0.00 | 81 | 1020.3 |
| 20260503235746 | 78 | 54 | 6.0 | 10.0 | 0.00 | 0.00 | 0.00 | 81 | 1020.3 |
| 20260503235243 | 78 | 63 | 7.0 | 16.0 | 0.00 | 0.00 | 0.00 | 81 | 1020.3 |
| 20260503234741 | 78 | 96 | 8.0 | 13.0 | 0.00 | 0.00 | 0.00 | 82 | 1020.3 |
| 20260503234239 | 78 | 106 | 7.0 | 11.0 | 0.00 | 0.00 | 0.00 | 82 | 1020.3 |
| 20260503233736 | 78 | 77 | 5.0 | 16.0 | 0.00 | 0.00 | 0.00 | 82 | 1020.2 |
| 20260503233231 | 78 | 70 | 14.0 | 17.0 | 0.00 | 0.00 | 0.00 | 82 | 1020.2 |
| 20260503232728 | 78 | 72 | 8.0 | 14.0 | 0.00 | 0.00 | 0.00 | 82 | 1020.2 |
| 20260503232226 | 78 | 104 | 11.0 | 13.0 | 0.00 | 0.00 | 0.00 | 82 | 1020.0 |
| 20260503231724 | 78 | 90 | 8.0 | 13.0 | 0.00 | 0.00 | 0.00 | 81 | 1019.8 |
| 20260503231220 | 78 | 72 | 7.0 | 10.0 | 0.00 | 0.00 | 0.00 | 81 | 1020.0 |
| 20260503230716 | 78 | 114 | 6.0 | 11.0 | 0.00 | 0.00 | 0.00 | 81 | 1019.9 |
| 20260503230214 | 78 | 204 | 4.0 | 14.0 | 0.00 | 0.00 | 0.00 | 80 | 1019.9 |
| 20260503225711 | 78 | 194 | 9.0 | 11.0 | 0.00 | 0.00 | 0.00 | 80 | 1019.8 |
| 20260503225211 | 78 | 125 | 10.0 | 13.0 | 0.00 | 0.00 | 0.00 | 80 | 1019.7 |
| 20260503224709 | 78 | 128 | 8.0 | 14.0 | 0.00 | 0.00 | 0.00 | 79 | 1020.0 |
| 20260503224207 | 79 | 122 | 6.0 | 13.0 | 0.00 | 0.00 | 0.00 | 79 | 1019.8 |
| 20260503223704 | 79 | 171 | 12.0 | 14.0 | 0.00 | 0.00 | 0.00 | 79 | 1019.9 |
| 20260503223201 | 79 | 115 | 11.0 | 13.0 | 0.00 | 0.00 | 0.00 | 79 | 1020.1 |
| 20260503222658 | 80 | 105 | 9.0 | 13.0 | 0.00 | 0.00 | 0.00 | 78 | 1019.8 |
| 20260503222155 | 80 | 88 | 10.0 | 13.0 | 0.00 | 0.00 | 0.00 | 77 | 1019.6 |
| 20260503221654 | 80 | 142 | 9.0 | 14.0 | 0.00 | 0.00 | 0.00 | 78 | 1019.7 |
| 20260503221151 | 80 | 148 | 5.0 | 13.0 | 0.00 | 0.00 | 0.00 | 78 | 1019.9 |
| 20260503220647 | 80 | 352 | 8.0 | 14.0 | 0.00 | 0.00 | 0.00 | 77 | 1019.7 |
| 20260503220144 | 80 | 74 | 9.0 | 14.0 | 0.00 | 0.00 | 0.00 | 77 | 1019.7 |
| 20260503215641 | 80 | 88 | 11.0 | 16.0 | 0.00 | 0.00 | 0.00 | 76 | 1019.7 |
| 20260503215137 | 80 | 210 | 5.0 | 10.0 | 0.00 | 0.00 | 0.00 | 75 | 1019.9 |
| 20260503214637 | 80 | 121 | 8.0 | 13.0 | 0.00 | 0.00 | 0.00 | 75 | 1019.7 |
| 20260503214132 | 81 | 91 | 11.0 | 13.0 | 0.00 | 0.00 | 0.00 | 74 | 1019.8 |
| 20260503213626 | 81 | 134 | 11.0 | 16.0 | 0.00 | 0.00 | 0.00 | 75 | 1019.7 |
| 20260503213122 | 81 | 56 | 9.0 | 16.0 | 0.00 | 0.00 | 0.00 | 74 | 1019.6 |
| 20260503212620 | 81 | 124 | 9.0 | 13.0 | 0.00 | 0.00 | 0.00 | 74 | 1019.5 |
| 20260503212117 | 81 | 146 | 12.0 | 14.0 | 0.00 | 0.00 | 0.00 | 74 | 1019.6 |
| 20260503211615 | 81 | 130 | 9.0 | 14.0 | 0.00 | 0.00 | 0.00 | 73 | 1019.4 |
| 20260503211110 | 81 | 110 | 13.0 | 18.0 | 0.00 | 0.00 | 0.00 | 73 | 1019.3 |
| 20260503210606 | 81 | 178 | 10.0 | 15.0 | 0.00 | 0.00 | 0.00 | 72 | 1019.3 |
| 20260503205558 | 81 | 158 | 9.0 | 19.0 | 0.00 | 0.00 | 0.00 | 72 | 1019.3 |
| 20260503205055 | 82 | 116 | 16.0 | 21.0 | 0.00 | 0.00 | 0.00 | 70 | 1019.2 |
| 20260503204553 | 82 | 52 | 13.0 | 17.0 | 0.00 | 0.00 | 0.00 | 71 | 1019.4 |
| 20260503204050 | 82 | 162 | 9.0 | 18.0 | 0.00 | 0.00 | 0.00 | 71 | 1019.3 |
| 20260503203547 | 82 | 140 | 13.0 | 21.0 | 0.00 | 0.00 | 0.00 | 71 | 1019.4 |
| 20260503203044 | 82 | 158 | 15.0 | 17.0 | 0.00 | 0.00 | 0.00 | 71 | 1019.3 |
| 20260503202542 | 82 | 94 | 10.0 | 19.0 | 0.00 | 0.00 | 0.00 | 71 | 1019.3 |
| 20260503202039 | 82 | 77 | 12.0 | 21.0 | 0.00 | 0.00 | 0.00 | 70 | 1019.3 |
| 20260503201537 | 82 | 107 | 15.0 | 19.0 | 0.00 | 0.00 | 0.00 | 68 | 1019.3 |
| 20260503201034 | 83 | 112 | 13.0 | 21.0 | 0.00 | 0.00 | 0.00 | 68 | 1019.5 |
| 20260503200530 | 83 | 76 | 15.0 | 19.0 | 0.00 | 0.00 | 0.00 | 68 | 1019.3 |
| 20260503200027 | 84 | 101 | 15.0 | 18.0 | 0.00 | 0.00 | 0.00 | 67 | 1019.6 |
| 20260503195524 | 83 | 202 | 8.0 | 17.0 | 0.00 | 0.00 | 0.00 | 69 | 1019.6 |
| 20260503195021 | 84 | 113 | 17.0 | 23.0 | 0.00 | 0.00 | 0.00 | 66 | 1019.6 |
| 20260503194518 | 84 | 113 | 15.0 | 18.0 | 0.00 | 0.00 | 0.00 | 64 | 1019.5 |
| 20260503194017 | 84 | 90 | 12.0 | 23.0 | 0.00 | 0.00 | 0.00 | 66 | 1019.6 |
| 20260503193514 | 84 | 82 | 12.0 | 21.0 | 0.00 | 0.00 | 0.00 | 65 | 1019.4 |
| 20260503193009 | 84 | 171 | 13.0 | 18.0 | 0.00 | 0.00 | 0.00 | 68 | 1019.5 |
| 20260503192506 | 85 | 137 | 14.0 | 16.0 | 0.00 | 0.00 | 0.00 | 63 | 1019.7 |
| 20260503192001 | 85 | 74 | 15.0 | 19.0 | 0.00 | 0.00 | 0.00 | 66 | 1019.8 |
| 20260503191459 | 84 | 239 | 12.0 | 18.0 | 0.00 | 0.00 | 0.00 | 62 | 1019.9 |
| 20260503190955 | 84 | 114 | 13.0 | 21.0 | 0.00 | 0.00 | 0.00 | 65 | 1019.9 |
| 20260503190453 | 84 | 129 | 13.0 | 24.0 | 0.00 | 0.00 | 0.00 | 66 | 1020.0 |
| 20260503185950 | 84 | 133 | 17.0 | 23.0 | 0.00 | 0.00 | 0.00 | 64 | 1020.0 |
| 20260503185446 | 84 | 122 | 13.0 | 18.0 | 0.00 | 0.00 | 0.00 | 67 | 1019.9 |
| 20260503184945 | 85 | 119 | 17.0 | 22.0 | 0.00 | 0.00 | 0.00 | 62 | 1020.1 |
| 20260503184442 | 85 | 106 | 11.0 | 18.0 | 0.00 | 0.00 | 0.00 | 64 | 1020.0 |
| 20260503183938 | 84 | 34 | 10.0 | 23.0 | 0.00 | 0.00 | 0.00 | 67 | 1020.2 |
| 20260503183435 | 85 | 121 | 10.0 | 18.0 | 0.00 | 0.00 | 0.00 | 67 | 1020.3 |
| 20260503182932 | 85 | 163 | 15.0 | 19.0 | 0.00 | 0.00 | 0.00 | 64 | 1020.3 |
| 20260503182431 | 86 | 156 | 9.0 | 22.0 | 0.00 | 0.00 | 0.00 | 63 | 1020.3 |
| 20260503181928 | 85 | 89 | 9.0 | 19.0 | 0.00 | 0.00 | 0.00 | 65 | 1020.2 |
| 20260503181425 | 85 | 101 | 11.0 | 22.0 | 0.00 | 0.00 | 0.00 | 65 | 1020.4 |
| 20260503180921 | 86 | 107 | 15.0 | 18.0 | 0.00 | 0.00 | 0.00 | 64 | 1020.5 |
| 20260503180420 | 86 | 114 | 12.0 | 17.0 | 0.00 | 0.00 | 0.00 | 65 | 1020.4 |
| 20260503175917 | 86 | 136 | 17.0 | 23.0 | 0.00 | 0.00 | 0.00 | 63 | 1020.8 |
| 20260503175415 | 85 | 110 | 11.0 | 21.0 | 0.00 | 0.00 | 0.00 | 66 | 1020.7 |
| 20260503174910 | 85 | 133 | 17.0 | 21.0 | 0.00 | 0.00 | 0.00 | 62 | 1020.8 |
| 20260503174409 | 85 | 109 | 13.0 | 19.0 | 0.00 | 0.00 | 0.00 | 61 | 1020.9 |
| 20260503173908 | 86 | 144 | 13.0 | 17.0 | 0.00 | 0.00 | 0.00 | 63 | 1021.0 |
| 20260503173405 | 85 | 127 | 12.0 | 19.0 | 0.00 | 0.00 | 0.00 | 65 | 1021.1 |
| 20260503172901 | 85 | 136 | 12.0 | 22.0 | 0.00 | 0.00 | 0.00 | 64 | 1021.1 |
| 20260503172359 | 86 | 86 | 16.0 | 19.0 | 0.00 | 0.00 | 0.00 | 64 | 1021.2 |
| 20260503171855 | 85 | 94 | 16.0 | 22.0 | 0.00 | 0.00 | 0.00 | 65 | 1021.2 |
| 20260503171352 | 85 | 176 | 13.0 | 19.0 | 0.00 | 0.00 | 0.00 | 66 | 1021.4 |
| 20260503170850 | 86 | 108 | 9.0 | 21.0 | 0.00 | 0.00 | 0.00 | 64 | 1021.2 |
| 20260503170346 | 86 | 109 | 14.0 | 19.0 | 0.00 | 0.00 | 0.00 | 64 | 1021.2 |
| 20260503150738 | 87 | 89 | 13.0 | 18.0 | 0.00 | 0.00 | 0.00 | 65 | 1022.0 |
| 20260503150234 | 87 | 100 | 11.0 | 14.0 | 0.00 | 0.00 | 0.00 | 64 | 1022.2 |
| 20260503140158 | 87 | 214 | 9.0 | 15.0 | 0.00 | 0.00 | 0.00 | 60 | 1022.3 |
| 20260503131128 | 86 | 71 | 13.0 | 19.0 | 0.00 | 0.00 | 0.00 | 63 | 1022.1 |
| 20260503130626 | 85 | 75 | 9.0 | 18.0 | 0.00 | 0.00 | 0.00 | 65 | 1022.1 |
| 20260503130123 | 83 | 109 | 8.0 | 13.0 | 0.00 | 0.00 | 0.00 | 70 | 1022.1 |
| 20260503110516 | 78 | 97 | 9.0 | 13.0 | 0.00 | 0.00 | 0.00 | 75 | 1021.1 |
| 20260503090408 | 75 | 50 | 6.0 | 14.0 | 0.00 | 0.00 | 0.00 | 79 | 1020.2 |
| 20260503081335 | 75 | 88 | 7.0 | 11.0 | 0.00 | 0.00 | 0.00 | 79 | 1020.2 |
| 20260503080831 | 75 | 67 | 9.0 | 14.0 | 0.00 | 0.00 | 0.00 | 79 | 1020.1 |
| 20260503080328 | 75 | 58 | 7.0 | 10.0 | 0.00 | 0.00 | 0.00 | 79 | 1019.9 |
| 20260503072805 | 76 | 84 | 11.0 | 13.0 | 0.00 | 0.00 | 0.00 | 79 | 1019.9 |
| 20260503072304 | 76 | 88 | 6.0 | 16.0 | 0.00 | 0.00 | 0.00 | 78 | 1020.1 |
| 20260503071758 | 76 | 113 | 8.0 | 15.0 | 0.00 | 0.00 | 0.00 | 79 | 1020.3 |
| 20260503071255 | 76 | 104 | 9.0 | 14.0 | 0.00 | 0.00 | 0.00 | 79 | 1020.2 |
| 20260503070751 | 76 | 110 | 5.0 | 16.0 | 0.00 | 0.00 | 0.00 | 79 | 1020.4 |
| 20260503070249 | 76 | 123 | 8.0 | 14.0 | 0.00 | 0.00 | 0.00 | 79 | 1020.3 |
| 20260503060214 | 76 | 72 | 9.0 | 14.0 | 0.00 | 0.00 | 0.00 | 81 | 1020.9 |
| 20260503054701 | 76 | 102 | 12.0 | 16.0 | 0.00 | 0.00 | 0.00 | 81 | 1020.7 |
| 20260503054159 | 76 | 64 | 10.0 | 11.0 | 0.00 | 0.00 | 0.00 | 80 | 1021.0 |
| 20260503053656 | 76 | 109 | 7.0 | 14.0 | 0.00 | 0.00 | 0.00 | 80 | 1021.2 |
| 20260503053155 | 76 | 70 | 9.0 | 13.0 | 0.00 | 0.00 | 0.00 | 79 | 1021.1 |
| 20260503052651 | 76 | 88 | 13.0 | 16.0 | 0.00 | 0.00 | 0.00 | 79 | 1021.1 |
| 20260503052147 | 76 | 70 | 11.0 | 14.0 | 0.00 | 0.00 | 0.00 | 79 | 1021.0 |
| 20260503051642 | 76 | 71 | 9.0 | 15.0 | 0.00 | 0.00 | 0.00 | 79 | 1021.2 |
| 20260503051141 | 76 | 115 | 5.0 | 11.0 | 0.00 | 0.00 | 0.00 | 80 | 1021.0 |
| 20260503050637 | 76 | 56 | 9.0 | 13.0 | 0.00 | 0.00 | 0.00 | 80 | 1021.1 |
| 20260503050134 | 76 | 81 | 8.0 | 10.0 | 0.00 | 0.00 | 0.00 | 80 | 1021.2 |
| 20260503045631 | 76 | 118 | 6.0 | 14.0 | 0.00 | 0.00 | 0.00 | 80 | 1021.1 |
| 20260503045128 | 76 | 57 | 9.0 | 14.0 | 0.00 | 0.00 | 0.00 | 79 | 1021.1 |
| 20260503044625 | 76 | 174 | 8.0 | 14.0 | 0.00 | 0.00 | 0.00 | 79 | 1021.3 |
| 20260503044122 | 76 | 30 | 7.0 | 15.0 | 0.00 | 0.00 | 0.00 | 79 | 1021.3 |
| 20260503043619 | 76 | 75 | 10.0 | 14.0 | 0.00 | 0.00 | 0.00 | 80 | 1021.5 |
| 20260503043116 | 76 | 85 | 7.0 | 15.0 | 0.00 | 0.00 | 0.00 | 80 | 1021.3 |
| 20260503042612 | 76 | 47 | 9.0 | 14.0 | 0.00 | 0.00 | 0.00 | 79 | 1021.6 |
| 20260503042108 | 76 | 77 | 10.0 | 15.0 | 0.00 | 0.00 | 0.00 | 79 | 1021.5 |
| 20260503041605 | 76 | 59 | 11.0 | 15.0 | 0.00 | 0.00 | 0.00 | 79 | 1021.5 |
| 20260503041103 | 76 | 93 | 6.0 | 10.0 | 0.00 | 0.00 | 0.00 | 79 | 1021.6 |
| 20260503040600 | 76 | 19 | 7.0 | 15.0 | 0.00 | 0.00 | 0.00 | 79 | 1021.6 |
| 20260503040057 | 76 | 75 | 9.0 | 15.0 | 0.00 | 0.00 | 0.00 | 78 | 1021.7 |
| 20260503035554 | 76 | 64 | 7.0 | 16.0 | 0.00 | 0.00 | 0.00 | 79 | 1021.6 |
| 20260503035052 | 76 | 77 | 10.0 | 13.0 | 0.00 | 0.00 | 0.00 | 78 | 1021.8 |
| 20260503034548 | 76 | 27 | 8.0 | 15.0 | 0.00 | 0.00 | 0.00 | 78 | 1021.8 |
| 20260503034046 | 76 | 43 | 7.0 | 14.0 | 0.00 | 0.00 | 0.00 | 78 | 1021.8 |
| 20260503033543 | 76 | 97 | 6.0 | 13.0 | 0.00 | 0.00 | 0.00 | 78 | 1021.7 |
| 20260503033041 | 76 | 33 | 6.0 | 14.0 | 0.00 | 0.00 | 0.00 | 79 | 1021.9 |